默认 日期 大小 文件数 浏览量 最新下载 xml
幕 2017磁力链接相关资源由用户搜索指令自动获取,结果来源于网络,本站不存储任何资料,亦不承担任何责任,请于24小时内删除,搜索到7924个磁力,显示前4000条数据,用时29ms。
    ... .of.Mars.2017.HD720P.x264.中英双字.btrenren.mp4 ...
创建时间: 2018-12-21 05:23:22 大小:2.07 GB 文件数量:7 热度:93 最近下载:2025-09-20 02:36:05
    ... }, "3月外挂字合集": {"[chippai]一年 ...
创建时间: 2018-12-21 05:29:38 大小:2.1 GB 文件数量:19 热度:45 最近下载:2025-08-22 23:52:02
    {"两个M妈.Two.mothers.2017.HD720P.X264,.AAC.HYS.中文字.mp4": 1283203940}
创建时间: 2018-12-21 05:59:16 大小:1.2 GB 文件数量:1 热度:60 最近下载:2025-10-14 00:31:02
    ... 难尽]中英字.Newness.2017.720p.WEB-DL.MP4 ...
创建时间: 2018-12-21 10:16:51 大小:1.82 GB 文件数量:5 热度:57 最近下载:2025-09-08 21:53:04
    {"灵极客 www.lingjike.com.zip": 238589, "www.lingjike.com你懂的电影下载尽在【灵极客】论坛.txt": 3, "-=【灵极客】论坛百度网盘下载-=新金瓶梅.3D.龚玥菲.完整版.2017.HD720P.x264.中文字.mp4": 2525276260}
创建时间: 2018-12-21 10:25:22 大小:2.35 GB 文件数量:3 热度:3473 最近下载:2025-10-17 19:07:01
    ... .Rory.Bremner.2017.HD720P.x264.中英双字.btrenren.mp4 ...
创建时间: 2018-12-21 11:04:25 大小:956.25 MB 文件数量:9 热度:32 最近下载:2025-09-03 17:25:03
    ... 载 - RARBT中文字电影天堂.html ... .Perfect.3.2017.1080p.BluRay.x264-中文字-RARBT.mp4 ...
创建时间: 2018-12-21 11:34:00 大小:2.68 GB 文件数量:4 热度:23 最近下载:2025-10-10 11:39:01
    ... .I.P.2017.1080p.BluRay.x264-中文字-RARBT.mp4 ... 载 - RARBT中文字电影天堂.html ...
创建时间: 2018-12-21 12:54:53 大小:3.74 GB 文件数量:7 热度:556 最近下载:2025-10-11 19:46:03
    ... 影缝匠.Phantom.Thread.2017-中文字.mp4": 1348042115}
创建时间: 2018-12-21 13:29:41 大小:1.26 GB 文件数量:6 热度:44 最近下载:2025-08-13 17:30:01
    {"招募.jpg": 398662, "FIX字侠长期招募.docx": 15409, "FIXSUB FIX字侠官方主站.url": 179, "FIXSUB FIX字侠官方微博.url": 182, "Along.with.the.Gods_The.Last.49.Days.2017.720p.FIX字侠.mp4": 2321538039}
创建时间: 2018-12-21 15:35:08 大小:2.16 GB 文件数量:5 热度:12 最近下载:2025-03-11 19:47:04
    ... 兆.Foreboding.2017.1080p.BluRay.x264-中文字-RARBT.mp4 ... 载 - RARBT中文字电影天堂.html ...
创建时间: 2018-12-21 16:05:15 大小:4.1 GB 文件数量:4 热度:15 最近下载:2025-10-11 17:51:05
    ... .com.txt": 528, "SPF-18.2017.HD1080P.x264.官方中 ... 文字.btrenren.mp4": 2471547941, "_____padding_file_0_如 ...
创建时间: 2018-12-21 16:18:49 大小:2.3 GB 文件数量:7 热度:9 最近下载:2024-12-18 04:37:03
    ... 诞节.El.Camino.Christmas.2017.HD1080P.x264.官方中 ... 文字.btrenren.mp4": 2933534678, "_____padding_file_0_如 ...
创建时间: 2018-12-21 16:26:04 大小:2.73 GB 文件数量:11 热度:47 最近下载:2025-09-28 23:42:02
    ... 星.The.Space.Between.Us.2017.HD1080P.x264.官方中 ... 文字.btrenren.mp4": 1665774510, "_____padding_file_0_如 ...
创建时间: 2018-12-21 16:45:23 大小:1.55 GB 文件数量:9 热度:22 最近下载:2025-09-24 23:40:05
    ... .the.Bar.2017.1080p.BluRay.x264-中文字-MP4BA.mp4 ...
创建时间: 2018-12-21 16:55:25 大小:3.67 GB 文件数量:5 热度:28 最近下载:2025-10-11 11:14:01
    {"字人员名单.txt": ... 盟.特效字.Justice.League.Dark.2017.BD1080P.X264.AAC ...
创建时间: 2018-12-21 16:55:29 大小:3.43 GB 文件数量:9 热度:103 最近下载:2025-09-23 19:34:02
    ... 遇记 Going to Brazil 2017.BD1080P.x264.法语中 ... 文字.fra.chs.aac.mp4": 2282575367 ... .日语中文字.Jp.chs.aac.torrent": 83196 ...
创建时间: 2018-12-21 17:01:05 大小:2.13 GB 文件数量:10 热度:39 最近下载:2025-09-17 20:04:07
    ... .Legion.S01E01.中英字.WEB-HR.AAC.720P.x264 ... .Legion.S01E02.中英字.WEB-HR.AAC.720P. ... .Legion.S01E03.中英字.WEB-HR.AAC.720P. ... .Legion.S01E04.中英字.WEB-HR.AAC.720P. ... .Legion.S01E05.中英字.WEB-HR.AAC.720P. ... .Legion.S01E06.中英字.WEB-HR.AAC.720P. ... .Legion.S01E07.中英字.WEB-HR.AAC.720P. ...
创建时间: 2018-12-21 17:17:11 大小:4.51 GB 文件数量:15 热度:173 最近下载:2025-09-25 13:27:02
    ... 前行]中英字.Cargo.2017.720p.NF.WEB-DL ...
创建时间: 2018-12-21 17:34:41 大小:1.54 GB 文件数量:5 热度:37 最近下载:2025-10-17 20:52:02
    ... 愿]中英字.Wish.Upon.2017.720p.BD-MKV.x264 ...
创建时间: 2018-12-21 18:01:43 大小:2.94 GB 文件数量:5 热度:35 最近下载:2025-09-19 07:19:05